Location: Newark
(47.4000°N, 7.5833°E)
Time: 00:32:35
(UTC+00:00)

N. Korean satellite - Pass Details

Date: 31 January 2020
Orbit: 456 x 505 km, 97.2° (Epoch: 24 February)

Event Time Altitude Azimuth Distance (km) Brightness Sun altitude
Rises 06:15:46 0° 0° (N) 2,559 10.0 -7.4°
Reaches altitude 10° 06:18:06 10° 346° (NNW) 1,682 9.0 -7.1°
Maximum altitude 06:21:01 23° 293° (WNW) 1,080 7.7 -6.6°
Drops below altitude 10° 06:23:57 10° 239° (WSW) 1,693 8.9 -6.1°
Sets 06:26:18 0° 225° (SW) 2,578 10.0 -5.8°
